| time (UTC) | temp F | wind direction | speed MPH | gust MPH | rain 1hr in | rain 24hr in | rain mn in | humidity % | barometer mb |
| 20260504183028 | 62 | 145 | 3.0 | 10.0 | 0.00 | 0.00 | 0.00 | 51 | 1011.3 |
| 20260504182509 | 62 | 203 | 3.0 | 9.0 | 0.00 | 0.00 | 0.00 | 50 | 1011.3 |
| 20260504182010 | 62 | 169 | 2.0 | 8.0 | 0.00 | 0.00 | 0.00 | 52 | 1011.3 |
| 20260504181510 | 62 | 144 | 3.0 | 6.0 | 0.00 | 0.00 | 0.00 | 52 | 1011.1 |
| 20260504181004 | 62 | 204 | 3.0 | 6.0 | 0.00 | 0.00 | 0.00 | 53 | 1011.1 |
| 20260504180507 | 62 | 223 | 2.0 | 5.0 | 0.00 | 0.00 | 0.00 | 53 | 1011.1 |
| 20260504180014 | 62 | 175 | 2.0 | 4.0 | 0.00 | 0.00 | 0.00 | 55 | 1011.1 |
| 20260504175507 | 62 | 186 | 2.0 | 7.0 | 0.00 | 0.00 | 0.00 | 56 | 1011.2 |
| 20260504175005 | 61 | 138 | 2.0 | 8.0 | 0.00 | 0.00 | 0.00 | 58 | 1011.3 |
| 20260504174518 | 61 | 202 | 2.0 | 8.0 | 0.00 | 0.00 | 0.00 | 58 | 1011.4 |
| 20260504174008 | 61 | 196 | 4.0 | 8.0 | 0.00 | 0.00 | 0.00 | 58 | 1011.3 |
| 20260504173510 | 61 | 195 | 3.0 | 7.0 | 0.00 | 0.00 | 0.00 | 59 | 1011.3 |
| 20260504173023 | 61 | 201 | 3.0 | 9.0 | 0.00 | 0.00 | 0.00 | 59 | 1011.3 |
| 20260504172509 | 61 | 187 | 3.0 | 9.0 | 0.00 | 0.00 | 0.00 | 59 | 1011.3 |
| 20260504172009 | 61 | 231 | 4.0 | 11.0 | 0.00 | 0.00 | 0.00 | 57 | 1011.3 |
| 20260504171537 | 61 | 152 | 3.0 | 11.0 | 0.00 | 0.00 | 0.00 | 57 | 1011.4 |
| 20260504171013 | 61 | 188 | 4.0 | 11.0 | 0.00 | 0.00 | 0.00 | 59 | 1011.4 |
| 20260504170508 | 61 | 125 | 4.0 | 7.0 | 0.00 | 0.00 | 0.00 | 58 | 1011.5 |
| 20260504151008 | 60 | 148 | 3.0 | 7.0 | 0.00 | 0.00 | 0.00 | 61 | 1012.2 |
| 20260504150508 | 59 | 164 | 3.0 | 8.0 | 0.00 | 0.00 | 0.00 | 59 | 1012.3 |
| 20260504141008 | 58 | 148 | 2.0 | 8.0 | 0.00 | 0.00 | 0.00 | 61 | 1012.5 |
| 20260504140508 | 58 | 210 | 3.0 | 8.0 | 0.00 | 0.00 | 0.00 | 65 | 1012.7 |
| 20260504130509 | 56 | 155 | 2.0 | 5.0 | 0.00 | 0.00 | 0.00 | 70 | 1012.9 |
| 20260504110506 | 49 | 176 | 2.0 | 3.0 | 0.00 | 0.00 | 0.00 | 79 | 1012.5 |
| 20260504100507 | 48 | 176 | 0.0 | 3.0 | 0.00 | 0.00 | 0.00 | 79 | 1012.4 |
| 20260504081528 | 49 | 168 | 1.0 | 2.0 | 0.00 | 0.02 | 0.00 | 83 | 1011.8 |
| 20260504081008 | 48 | 170 | 1.0 | 1.0 | 0.00 | 0.02 | 0.00 | 83 | 1011.9 |
| 20260504080509 | 48 | 174 | 0.0 | 2.0 | 0.00 | 0.02 | 0.00 | 83 | 1011.9 |
| 20260504050509 | 43 | 196 | 0.0 | 2.0 | 0.00 | 0.15 | 0.00 | 86 | 1011.3 |
| 20260504050021 | 42 | 169 | 1.0 | 2.0 | 0.00 | 0.16 | 0.00 | 86 | 1011.4 |
| 20260504045507 | 42 | 193 | 0.0 | 3.0 | 0.00 | 0.16 | 0.00 | 85 | 1011.2 |
| 20260504045007 | 41 | 193 | 0.0 | 3.0 | 0.00 | 0.16 | 0.00 | 85 | 1011.3 |
| 20260504044527 | 41 | 191 | 0.0 | 3.0 | 0.00 | 0.16 | 0.00 | 85 | 1011.5 |
| 20260504044002 | 41 | 214 | 0.0 | 2.0 | 0.00 | 0.16 | 0.00 | 84 | 1011.5 |
| 20260504043506 | 41 | 217 | 0.0 | 2.0 | 0.00 | 0.17 | 0.00 | 84 | 1011.5 |
| 20260504043012 | 41 | 217 | 0.0 | 2.0 | 0.00 | 0.17 | 0.00 | 84 | 1011.5 |
| 20260504042507 | 41 | 217 | 0.0 | 2.0 | 0.00 | 0.17 | 0.00 | 83 | 1011.5 |
| 20260504042007 | 41 | 217 | 0.0 | 0.0 | 0.00 | 0.18 | 0.00 | 84 | 1011.4 |
| 20260504041513 | 41 | 217 | 0.0 | 0.0 | 0.00 | 0.18 | 0.00 | 84 | 1011.4 |
| 20260504041006 | 40 | 217 | 0.0 | 2.0 | 0.00 | 0.18 | 0.00 | 84 | 1011.4 |
| 20260504040507 | 40 | 217 | 0.0 | 2.0 | 0.00 | 0.19 | 0.00 | 85 | 1011.3 |
| 20260504040022 | 40 | 217 | 0.0 | 2.0 | 0.00 | 0.19 | 0.00 | 85 | 1011.2 |
| 20260504035507 | 40 | 217 | 0.0 | 0.0 | 0.00 | 0.19 | 0.19 | 84 | 1011.2 |
| 20260504035008 | 40 | 217 | 0.0 | 0.0 | 0.00 | 0.20 | 0.19 | 84 | 1011.2 |
| 20260504034524 | 40 | 217 | 0.0 | 0.0 | 0.00 | 0.20 | 0.19 | 84 | 1011.1 |
| 20260504034008 | 40 | 217 | 0.0 | 0.0 | 0.00 | 0.20 | 0.19 | 83 | 1011.0 |
| 20260504033512 | 39 | 217 | 0.0 | 0.0 | 0.00 | 0.21 | 0.19 | 82 | 1011.0 |
| 20260504033026 | 39 | 217 | 0.0 | 0.0 | 0.00 | 0.21 | 0.19 | 82 | 1011.0 |
| 20260504032510 | 39 | 217 | 0.0 | 2.0 | 0.00 | 0.21 | 0.19 | 81 | 1011.0 |
| 20260504032010 | 39 | 217 | 0.0 | 2.0 | 0.00 | 0.22 | 0.19 | 81 | 1011.0 |
| 20260504031510 | 39 | 217 | 0.0 | 0.0 | 0.00 | 0.22 | 0.19 | 81 | 1011.0 |
| 20260504031007 | 39 | 217 | 0.0 | 0.0 | 0.00 | 0.23 | 0.19 | 79 | 1011.0 |
| 20260504030510 | 39 | 217 | 0.0 | 0.0 | 0.00 | 0.24 | 0.19 | 80 | 1011.1 |
| 20260504030027 | 39 | 217 | 0.0 | 0.0 | 0.00 | 0.24 | 0.19 | 79 | 1011.0 |
| 20260504025507 | 39 | 217 | 0.0 | 0.0 | 0.00 | 0.26 | 0.19 | 79 | 1011.0 |
| 20260504025006 | 39 | 217 | 0.0 | 0.0 | 0.00 | 0.27 | 0.19 | 78 | 1011.0 |
| 20260504024521 | 40 | 217 | 0.0 | 0.0 | 0.00 | 0.28 | 0.19 | 77 | 1011.1 |
| 20260504024008 | 40 | 217 | 0.0 | 0.0 | 0.00 | 0.29 | 0.19 | 77 | 1011.1 |
| 20260504023507 | 40 | 217 | 0.0 | 0.0 | 0.00 | 0.29 | 0.19 | 76 | 1011.1 |
| 20260504023024 | 40 | 217 | 0.0 | 0.0 | 0.00 | 0.30 | 0.19 | 76 | 1011.1 |
| 20260504022507 | 40 | 217 | 0.0 | 0.0 | 0.00 | 0.30 | 0.19 | 74 | 1011.1 |
| 20260504022011 | 41 | 217 | 0.0 | 0.0 | 0.00 | 0.30 | 0.19 | 73 | 1011.1 |
| 20260504021531 | 41 | 217 | 0.0 | 0.0 | 0.00 | 0.31 | 0.19 | 71 | 1011.1 |
| 20260504021012 | 41 | 217 | 0.0 | 0.0 | 0.00 | 0.31 | 0.19 | 71 | 1011.0 |
| 20260504020506 | 42 | 217 | 0.0 | 1.0 | 0.00 | 0.32 | 0.19 | 70 | 1011.0 |
| 20260504020018 | 42 | 217 | 0.0 | 1.0 | 0.00 | 0.34 | 0.19 | 69 | 1010.9 |
| 20260504015507 | 42 | 217 | 0.0 | 0.0 | 0.00 | 0.35 | 0.19 | 68 | 1010.9 |
| 20260504015007 | 43 | 217 | 0.0 | 0.0 | 0.00 | 0.37 | 0.19 | 67 | 1010.9 |
| 20260504014518 | 43 | 217 | 0.0 | 0.0 | 0.00 | 0.38 | 0.19 | 67 | 1010.9 |
| 20260504014011 | 44 | 217 | 0.0 | 0.0 | 0.00 | 0.39 | 0.19 | 67 | 1010.9 |
| 20260504013508 | 44 | 217 | 0.0 | 0.0 | 0.00 | 0.40 | 0.19 | 67 | 1010.8 |
| 20260504013023 | 44 | 217 | 0.0 | 0.0 | 0.00 | 0.41 | 0.19 | 67 | 1010.8 |
| 20260504012510 | 45 | 217 | 0.0 | 0.0 | 0.00 | 0.43 | 0.19 | 65 | 1010.7 |
| 20260504012011 | 45 | 217 | 0.0 | 0.0 | 0.00 | 0.44 | 0.19 | 63 | 1010.7 |
| 20260504011524 | 46 | 217 | 0.0 | 0.0 | 0.00 | 0.45 | 0.19 | 64 | 1010.6 |
| 20260504011010 | 46 | 217 | 0.0 | 0.0 | 0.00 | 0.46 | 0.19 | 60 | 1010.4 |
| 20260504010507 | 47 | 217 | 0.0 | 0.0 | 0.00 | 0.47 | 0.19 | 58 | 1010.4 |
| 20260504010028 | 47 | 217 | 0.0 | 2.0 | 0.00 | 0.47 | 0.19 | 57 | 1010.3 |
| 20260504005507 | 47 | 217 | 0.0 | 2.0 | 0.00 | 0.48 | 0.19 | 56 | 1010.3 |
| 20260504005004 | 48 | 217 | 0.0 | 2.0 | 0.00 | 0.49 | 0.19 | 56 | 1010.1 |
| 20260504004521 | 48 | 217 | 0.0 | 2.0 | 0.00 | 0.49 | 0.19 | 54 | 1010.1 |
| 20260504004011 | 48 | 217 | 0.0 | 2.0 | 0.00 | 0.49 | 0.19 | 52 | 1009.9 |
| 20260504003509 | 49 | 217 | 0.0 | 2.0 | 0.00 | 0.50 | 0.19 | 53 | 1009.8 |
| 20260504003021 | 49 | 217 | 1.0 | 2.0 | 0.00 | 0.51 | 0.19 | 52 | 1009.7 |
| 20260504002509 | 49 | 217 | 0.0 | 2.0 | 0.00 | 0.54 | 0.19 | 52 | 1009.6 |
| 20260504002007 | 49 | 222 | 1.0 | 3.0 | 0.00 | 0.54 | 0.19 | 51 | 1009.6 |
| 20260504001524 | 50 | 233 | 1.0 | 3.0 | 0.00 | 0.54 | 0.19 | 51 | 1009.5 |
| 20260504001008 | 50 | 226 | 1.0 | 3.0 | 0.00 | 0.54 | 0.19 | 50 | 1009.5 |
| 20260504000507 | 50 | 229 | 0.0 | 3.0 | 0.00 | 0.55 | 0.19 | 50 | 1009.4 |
| 20260504000025 | 50 | 223 | 0.0 | 2.0 | 0.00 | 0.55 | 0.19 | 51 | 1009.3 |
| 20260503235508 | 50 | 226 | 1.0 | 3.0 | 0.00 | 0.55 | 0.19 | 49 | 1009.3 |
| 20260503235011 | 51 | 230 | 1.0 | 3.0 | 0.00 | 0.55 | 0.19 | 48 | 1009.2 |
| 20260503234541 | 51 | 215 | 1.0 | 4.0 | 0.00 | 0.56 | 0.19 | 48 | 1009.1 |
| 20260503234011 | 51 | 205 | 1.0 | 4.0 | 0.00 | 0.56 | 0.19 | 48 | 1009.0 |
| 20260503233510 | 51 | 241 | 1.0 | 5.0 | 0.00 | 0.56 | 0.19 | 48 | 1009.0 |
| 20260503233017 | 51 | 226 | 1.0 | 5.0 | 0.00 | 0.56 | 0.19 | 48 | 1008.8 |
| 20260503232507 | 51 | 217 | 1.0 | 3.0 | 0.00 | 0.56 | 0.19 | 51 | 1008.7 |
| 20260503232007 | 51 | 214 | 1.0 | 3.0 | 0.00 | 0.57 | 0.19 | 50 | 1008.5 |
| 20260503231526 | 52 | 222 | 1.0 | 8.0 | 0.00 | 0.57 | 0.19 | 49 | 1008.4 |
| 20260503231008 | 52 | 213 | 2.0 | 8.0 | 0.00 | 0.57 | 0.19 | 48 | 1008.3 |
| 20260503230515 | 52 | 213 | 1.0 | 4.0 | 0.00 | 0.57 | 0.19 | 48 | 1008.2 |
| 20260503230006 | 52 | 205 | 2.0 | 7.0 | 0.00 | 0.57 | 0.19 | 48 | 1008.1 |
| 20260503225503 | 52 | 198 | 3.0 | 7.0 | 0.00 | 0.57 | 0.19 | 47 | 1008.0 |
| 20260503225003 | 52 | 217 | 4.0 | 7.0 | 0.00 | 0.57 | 0.19 | 47 | 1007.9 |
| 20260503224512 | 52 | 213 | 1.0 | 5.0 | 0.00 | 0.57 | 0.19 | 46 | 1007.8 |
| 20260503224006 | 52 | 237 | 1.0 | 5.0 | 0.00 | 0.57 | 0.19 | 48 | 1007.7 |
| 20260503223509 | 52 | 170 | 2.0 | 4.0 | 0.00 | 0.57 | 0.19 | 49 | 1007.7 |
| 20260503223014 | 52 | 229 | 1.0 | 4.0 | 0.00 | 0.57 | 0.19 | 48 | 1007.6 |
| 20260503222506 | 53 | 217 | 1.0 | 6.0 | 0.00 | 0.57 | 0.19 | 47 | 1007.5 |
| 20260503222007 | 53 | 236 | 1.0 | 6.0 | 0.00 | 0.57 | 0.19 | 47 | 1007.5 |
| 20260503221523 | 53 | 210 | 3.0 | 6.0 | 0.00 | 0.57 | 0.19 | 47 | 1007.5 |
| 20260503221013 | 53 | 210 | 1.0 | 4.0 | 0.00 | 0.57 | 0.19 | 47 | 1007.3 |
| 20260503220508 | 53 | 235 | 1.0 | 4.0 | 0.00 | 0.57 | 0.19 | 49 | 1007.3 |
| 20260503220010 | 53 | 196 | 2.0 | 6.0 | 0.00 | 0.57 | 0.19 | 46 | 1007.2 |
| 20260503215503 | 53 | 210 | 2.0 | 6.0 | 0.00 | 0.57 | 0.19 | 47 | 1007.2 |
| 20260503215004 | 53 | 206 | 3.0 | 5.0 | 0.00 | 0.57 | 0.19 | 47 | 1007.0 |
| 20260503214505 | 53 | 225 | 2.0 | 5.0 | 0.00 | 0.57 | 0.19 | 48 | 1007.0 |
| 20260503214003 | 53 | 249 | 1.0 | 5.0 | 0.00 | 0.57 | 0.19 | 49 | 1007.0 |
| 20260503213505 | 53 | 256 | 1.0 | 4.0 | 0.00 | 0.57 | 0.19 | 51 | 1006.9 |
| 20260503213012 | 53 | 213 | 2.0 | 3.0 | 0.00 | 0.57 | 0.19 | 53 | 1006.8 |
| 20260503212507 | 53 | 219 | 1.0 | 3.0 | 0.00 | 0.57 | 0.19 | 51 | 1006.8 |
| 20260503212007 | 53 | 219 | 0.0 | 4.0 | 0.00 | 0.57 | 0.19 | 52 | 1006.7 |
| 20260503211519 | 53 | 281 | 1.0 | 4.0 | 0.00 | 0.57 | 0.19 | 50 | 1006.7 |
| 20260503211011 | 53 | 216 | 1.0 | 3.0 | 0.00 | 0.57 | 0.19 | 51 | 1006.7 |
| 20260503210508 | 53 | 233 | 1.0 | 3.0 | 0.00 | 0.57 | 0.19 | 51 | 1006.5 |
| 20260503210024 | 53 | 243 | 2.0 | 5.0 | 0.00 | 0.57 | 0.19 | 51 | 1006.5 |
| 20260503205507 | 53 | 219 | 1.0 | 5.0 | 0.00 | 0.57 | 0.19 | 50 | 1006.4 |
| 20260503205009 | 53 | 229 | 1.0 | 5.0 | 0.00 | 0.57 | 0.19 | 51 | 1006.3 |
| 20260503204506 | 53 | 257 | 1.0 | 5.0 | 0.00 | 0.57 | 0.19 | 53 | 1006.3 |
| 20260503204009 | 53 | 227 | 1.0 | 3.0 | 0.00 | 0.57 | 0.19 | 54 | 1006.3 |
| 20260503203504 | 53 | 224 | 1.0 | 3.0 | 0.00 | 0.57 | 0.19 | 54 | 1006.2 |
| 20260503203022 | 53 | 203 | 1.0 | 3.0 | 0.00 | 0.57 | 0.19 | 53 | 1006.2 |
| 20260503202506 | 53 | 218 | 1.0 | 6.0 | 0.00 | 0.57 | 0.19 | 52 | 1006.2 |
| 20260503202009 | 53 | 228 | 2.0 | 6.0 | 0.00 | 0.57 | 0.19 | 51 | 1006.2 |
| 20260503201518 | 54 | 217 | 2.0 | 5.0 | 0.00 | 0.57 | 0.19 | 51 | 1006.1 |
| 20260503201011 | 54 | 223 | 1.0 | 6.0 | 0.00 | 0.57 | 0.19 | 52 | 1006.0 |
| 20260503200508 | 54 | 219 | 2.0 | 6.0 | 0.00 | 0.57 | 0.19 | 51 | 1005.9 |
| 20260503200023 | 54 | 238 | 2.0 | 6.0 | 0.00 | 0.57 | 0.19 | 50 | 1005.8 |
| 20260503195511 | 54 | 227 | 3.0 | 6.0 | 0.00 | 0.57 | 0.19 | 53 | 1005.9 |
| 20260503195009 | 54 | 212 | 2.0 | 7.0 | 0.00 | 0.57 | 0.19 | 52 | 1005.8 |
| 20260503194526 | 54 | 195 | 2.0 | 7.0 | 0.00 | 0.57 | 0.19 | 53 | 1005.8 |
| 20260503194010 | 53 | 259 | 1.0 | 6.0 | 0.00 | 0.57 | 0.19 | 53 | 1005.8 |
| 20260503193513 | 54 | 207 | 2.0 | 6.0 | 0.00 | 0.57 | 0.19 | 53 | 1005.8 |
| 20260503193008 | 54 | 220 | 2.0 | 5.0 | 0.00 | 0.57 | 0.19 | 54 | 1005.8 |
| 20260503192505 | 54 | 220 | 1.0 | 6.0 | 0.00 | 0.57 | 0.19 | 54 | 1005.8 |
| 20260503192005 | 55 | 258 | 3.0 | 6.0 | 0.00 | 0.57 | 0.19 | 53 | 1005.9 |
| 20260503191520 | 55 | 200 | 1.0 | 4.0 | 0.00 | 0.57 | 0.19 | 51 | 1005.8 |
| 20260503191009 | 55 | 243 | 1.0 | 4.0 | 0.00 | 0.57 | 0.19 | 55 | 1005.9 |
| 20260503190508 | 54 | 242 | 1.0 | 5.0 | 0.00 | 0.57 | 0.19 | 56 | 1005.9 |
| 20260503190020 | 54 | 208 | 2.0 | 7.0 | 0.00 | 0.57 | 0.19 | 56 | 1005.9 |
| 20260503185508 | 53 | 231 | 1.0 | 7.0 | 0.00 | 0.57 | 0.19 | 55 | 1006.0 |
| 20260503185006 | 53 | 224 | 2.0 | 7.0 | 0.00 | 0.57 | 0.19 | 56 | 1006.0 |
| 20260503184523 | 53 | 231 | 3.0 | 7.0 | 0.00 | 0.57 | 0.19 | 56 | 1006.1 |
| 20260503184009 | 53 | 223 | 3.0 | 9.0 | 0.00 | 0.57 | 0.19 | 55 | 1006.1 |
| 20260503183510 | 53 | 210 | 2.0 | 9.0 | 0.00 | 0.57 | 0.19 | 57 | 1006.2 |